Date String (YYYY-MM-DD hh:mm:ss) UTC,Instrument flags,absolute air pressure of the measurement (hPa),sample flow rate (lpm),inlet stack bypass flow (lpm),air temperature of the measurement (°C),ambient temperature measured by the external sensor (°C),aerosol sample conditioner tube jacket temperature (°C),OPC LED temperature (°C),internal box temperature (°C),relative humidity of the measurement (%),span deviation,mass concentration of particles derived from Lorenz-Mie calculation of OPC scattering (μg/m³),mass concentration of particles derived from Lorenz-Mie calculation of OPC scattering (μg/m³),mass concentration of particles derived from Lorenz-Mie calculation of OPC scattering (μg/m³)
DateTimeUTC,F1_M11,P_M11,Q1_M11,Q2_M11,T1_M11,T2_M11,T3_M11,T4_M11,T5_M11,U1_M11,ZSPAN_M11,X0_M11,X2_M11,X1_M11
2024-06-11 22:00:00,SystemResetWarning,0828.7,4.99,000.00,029.2,028.8,000.0,037.3,031.1,030.2,0000.0,0026.18,0007.42,0005.79
2024-06-11 22:01:00,SystemResetWarning,0828.6,4.99,000.00,029.3,028.9,000.0,037.3,031.1,030.5,0000.0,0026.53,0007.36,0005.78
2024-06-11 22:02:00,SystemResetWarning,0828.6,5.00,000.00,029.2,027.3,000.0,037.4,030.4,031.1,0000.0,0025.85,0007.34,0005.76
2024-06-11 22:03:00,SystemResetWarning,0828.6,5.00,000.00,028.8,025.6,000.0,037.4,029.6,031.7,0000.0,0024.35,0007.38,0005.75
2024-06-11 22:04:00,SystemResetWarning,0828.6,5.02,000.00,028.6,025.7,000.0,037.4,029.5,032.8,0000.0,0023.82,0007.41,0005.75
2024-06-11 22:05:00,SystemResetWarning,0828.6,4.99,000.00,028.6,026.2,000.0,037.3,029.8,032.7,0000.0,0023.31,0007.42,0005.75
2024-06-11 22:06:00,SystemResetWarning,0828.6,5.00,000.00,028.6,026.6,000.0,037.2,030.0,032.7,0000.0,0023.65,0007.36,0005.75
2024-06-11 22:07:00,SystemResetWarning,0828.6,5.01,000.00,028.7,027.1,000.0,037.2,030.2,032.9,0000.0,0023.74,0007.35,0005.73
2024-06-11 22:08:00,SystemResetWarning,0828.6,5.00,000.00,028.7,027.5,000.0,037.1,030.4,031.5,0000.0,0023.78,0007.38,0005.73
2024-06-11 22:09:00,SystemResetWarning,0828.6,5.00,000.00,028.8,027.9,000.0,037.1,030.6,030.9,0000.0,0024.54,0007.42,0005.74
2024-06-11 22:10:00,SystemResetWarning,0828.6,4.99,000.00,028.9,028.2,000.0,037.1,030.7,031.1,0000.0,0023.89,0007.41,0005.75
2024-06-11 22:11:00,SystemResetWarning,0828.6,5.00,000.00,029.0,028.4,000.0,037.2,030.9,031.6,0000.0,0021.93,0007.42,0005.76
2024-06-11 22:12:00,SystemResetWarning,0828.6,5.00,000.00,029.1,028.6,000.0,037.2,031.0,032.1,0000.0,0022.23,0007.41,0005.77
2024-06-11 22:13:00,SystemResetWarning,0828.6,5.00,000.00,029.2,028.8,000.0,037.2,031.1,030.6,0000.0,0022.06,0007.38,0005.78
2024-06-11 22:14:00,SystemResetWarning,0828.6,5.01,000.00,029.3,029.0,000.0,037.3,031.2,030.6,0000.0,0023.16,0007.37,0005.77
2024-06-11 22:15:00,SystemResetWarning,0828.6,5.00,000.00,029.4,028.9,000.0,037.4,031.2,029.9,0000.0,0024.01,0007.38,0005.78
2024-06-11 22:16:00,SystemResetWarning,0828.5,4.97,000.00,029.2,027.1,000.0,037.4,030.3,030.2,0000.0,0023.73,0007.39,0005.79
2024-06-11 22:17:00,SystemResetWarning,0828.4,5.02,000.00,028.8,025.6,000.0,037.4,029.6,030.2,0000.0,0022.99,0007.41,0005.81
2024-06-11 22:18:00,SystemResetWarning,0828.4,5.01,000.00,028.7,025.8,000.0,037.4,029.6,030.9,0000.0,0022.82,0007.40,0005.82
2024-06-11 22:19:00,SystemResetWarning,0828.4,4.99,000.00,028.6,026.3,000.0,037.3,029.9,030.7,0000.0,0022.50,0007.38,0005.83
2024-06-11 22:20:00,SystemResetWarning,0828.4,4.99,000.00,028.7,026.8,000.0,037.2,030.1,030.5,0000.0,0021.59,0007.36,0005.82
2024-06-11 22:21:00,SystemResetWarning,0828.4,5.00,000.00,028.7,027.2,000.0,037.2,030.3,030.7,0000.0,0022.12,0007.35,0005.82
2024-06-11 22:22:00,SystemResetWarning,0828.5,5.01,000.00,028.8,027.6,000.0,037.2,030.5,030.4,0000.0,0022.49,0007.36,0005.81
2024-06-11 22:23:00,SystemResetWarning,0828.4,4.99,000.00,028.9,028.0,000.0,037.2,030.7,029.3,0000.0,0021.88,0007.41,0005.80
2024-06-11 22:24:00,SystemResetWarning,0828.4,5.00,000.00,029.0,028.3,000.0,037.2,030.8,029.3,0000.0,0021.36,0007.46,0005.78
2024-06-11 22:25:00,SystemResetWarning,0828.4,5.00,000.00,029.1,028.5,000.0,037.2,030.9,029.2,0000.0,0020.90,0007.48,0005.78
2024-06-11 22:26:00,SystemResetWarning,0828.4,5.00,000.00,029.2,028.7,000.0,037.3,031.1,028.8,0000.0,0020.65,0007.47,0005.77
2024-06-11 22:27:00,SystemResetWarning,0828.4,5.01,000.00,029.3,028.9,000.0,037.3,031.2,028.8,0000.0,0021.39,0007.44,0005.74
2024-06-11 22:28:00,SystemResetWarning,0828.4,5.00,000.00,029.4,029.0,000.0,037.3,031.3,028.2,0000.0,0023.39,0007.43,0005.71
2024-06-11 22:29:00,SystemResetWarning,0828.3,4.98,000.00,029.3,027.9,000.0,037.4,030.7,028.5,0000.0,0025.02,0007.42,0005.69
2024-06-11 22:30:00,SystemResetWarning,0828.2,5.01,000.00,029.0,025.9,000.0,037.5,029.7,029.5,0000.0,0025.88,0007.39,0005.65
2024-06-11 22:31:00,SystemResetWarning,0828.2,5.01,000.00,028.7,025.7,000.0,037.4,029.5,030.1,0000.0,0026.93,0007.32,0005.64
2024-06-11 22:32:00,SystemResetWarning,0828.3,5.00,000.00,028.6,026.2,000.0,037.3,029.7,030.4,0000.0,0026.19,0007.25,0005.62
2024-06-11 22:33:00,SystemResetWarning,0828.3,5.00,000.00,028.6,026.6,000.0,037.2,030.0,030.3,0000.0,0024.69,0007.23,0005.60
2024-06-11 22:34:00,SystemResetWarning,0828.3,5.00,000.00,028.7,027.1,000.0,037.2,030.3,030.0,0000.0,0025.65,0007.24,0005.58
2024-06-11 22:35:00,SystemResetWarning,0828.3,5.00,000.00,028.8,027.5,000.0,037.2,030.5,029.7,0000.0,0025.62,0007.21,0005.59
2024-06-11 22:36:00,SystemResetWarning,0828.3,4.99,000.00,028.9,027.9,000.0,037.2,030.6,029.2,0000.0,0024.94,0007.16,0005.57
2024-06-11 22:37:00,SystemResetWarning,0828.3,5.00,000.00,028.9,028.2,000.0,037.2,030.8,029.5,0000.0,0026.53,0007.12,0005.56
2024-06-11 22:38:00,SystemResetWarning,0828.2,5.00,000.00,029.0,028.4,000.0,037.2,030.9,029.4,0000.0,0028.15,0007.11,0005.56
2024-06-11 22:39:00,SystemResetWarning,0828.3,5.00,000.00,029.1,028.7,000.0,037.3,031.0,029.1,0000.0,0027.67,0007.04,0005.55
2024-06-11 22:40:00,SystemResetWarning,0828.3,5.00,000.00,029.2,028.8,000.0,037.3,031.1,029.4,0000.0,0026.30,0007.02,0005.54
2024-06-11 22:41:00,SystemResetWarning,0828.3,5.00,000.00,029.3,029.0,000.0,037.3,031.2,028.6,0000.0,0025.83,0007.03,0005.55
2024-06-11 22:42:00,SystemResetWarning,0828.3,4.98,000.00,029.4,028.5,000.0,037.4,031.0,028.4,0000.0,0025.11,0007.04,0005.55
2024-06-11 22:43:00,SystemResetWarning,0828.2,4.99,000.00,029.1,026.5,000.0,037.4,030.0,028.8,0000.0,0026.29,0007.12,0005.54
2024-06-11 22:44:00,SystemResetWarning,0828.2,5.02,000.00,028.8,025.7,000.0,037.4,029.6,029.7,0000.0,0028.12,0007.12,0005.55
2024-06-11 22:45:00,SystemResetWarning,0828.2,4.99,000.00,028.7,026.1,000.0,037.4,029.7,029.2,0000.0,0028.01,0007.10,0005.56
2024-06-11 22:46:00,SystemResetWarning,0828.2,5.00,000.00,028.7,026.6,000.0,037.3,030.0,029.5,0000.0,0028.69,0007.06,0005.56
2024-06-11 22:47:00,SystemResetWarning,0828.2,5.00,000.00,028.7,027.1,000.0,037.2,030.3,030.3,0000.0,0029.32,0007.01,0005.56
2024-06-11 22:48:00,SystemResetWarning,0828.2,5.01,000.00,028.8,027.5,000.0,037.2,030.5,030.2,0000.0,0028.13,0007.00,0005.56
2024-06-11 22:49:00,SystemResetWarning,0828.2,4.99,000.00,028.9,027.9,000.0,037.2,030.6,030.2,0000.0,0026.51,0006.99,0005.57
2024-06-11 22:50:00,SystemResetWarning,0828.2,4.99,000.00,029.0,028.2,000.0,037.2,030.8,029.8,0000.0,0025.87,0007.04,0005.59
2024-06-11 22:51:00,SystemResetWarning,0828.2,5.00,000.00,029.1,028.5,000.0,037.2,030.9,029.9,0000.0,0026.91,0007.09,0005.60
2024-06-11 22:52:00,SystemResetWarning,0828.1,5.00,000.00,029.2,028.7,000.0,037.3,031.0,029.5,0000.0,0026.94,0007.08,0005.59
2024-06-11 22:53:00,SystemResetWarning,0828.2,5.01,000.00,029.3,028.9,000.0,037.3,031.2,029.4,0000.0,0026.64,0007.05,0005.59
2024-06-11 22:54:00,SystemResetWarning,0828.2,5.00,000.00,029.3,028.8,000.0,037.4,031.1,029.4,0000.0,0026.11,0007.00,0005.58
2024-06-11 22:55:00,SystemResetWarning,0828.1,4.97,000.00,029.1,026.9,000.0,037.4,030.1,028.9,0000.0,0024.72,0006.95,0005.56
2024-06-11 22:56:00,SystemResetWarning,0828.1,5.02,000.00,028.8,025.5,000.0,037.4,029.5,029.0,0000.0,0023.77,0006.89,0005.54
2024-06-11 22:57:00,SystemResetWarning,0828.1,5.00,000.00,028.6,025.9,000.0,037.4,029.6,029.2,0000.0,0023.80,0006.94,0005.55
2024-06-11 22:58:00,SystemResetWarning,0828.1,4.99,000.00,028.6,026.3,000.0,037.3,029.9,028.4,0000.0,0024.68,0006.96,0005.57
2024-06-11 22:59:00,SystemResetWarning,0828.0,5.01,000.00,028.6,026.8,000.0,037.2,030.1,028.5,0000.0,0024.16,0006.95,0005.57
